CAPE
493 791 414 322 400 293 231 67 0 2 0 0 0 0 0 0 0 0 0 0 0 0
797 718 759 832 521 199 130 111 46 0 0 0 0 0 0 0 0 0 0 0 0 0
1049 1111 996 993 687 309 223 5 0 0 0 0 0 0 0 0 0 0 0 0 0 0
1275 1103 785 483 382 305 86 1 0 0 0 0 0 0 0 0 0 0 0 0 0 0
1065 615 377 273 73 50 5 0 0 0 0 1 0 0 0 0 0 0 0 0 0 0
378 236 32 1 0 0 0 0 0 0 0 0 2 0 0 0 0 0 0 0 0 0
0 0 0 1 1 0 0 1 1 1 1 0 0 0 0 0 0 0 0 0 0 0
2 2 2 2 3 2 2 1 0 0 0 0 0 0 0 0 0 0 0 0 0 0
3 4 4 3 2 1 1 0 0 0 0 0 0 0 0 0 0 0 0 0 0 2
3 3 2 1 0 0 0 0 0 0 0 0 0 0 0 0 0 0 0 0 0 0
0 0 0 0 0 1 0 0 0 0 0 0 0 0 0 0 0 0 0 0 0 0
0 0 0 0 0 0 0 0 0 0 0 3 0 0 0 0 0 0 0 0 0 0
0 0 0 0 0 0 0 0 2 0 0 0 0 0 0 0 0 0 0 0 0 0
0 0 0 0 0 2 0 0 0 0 0 0 0 0 0 0 0 0 0 0 0 0
CIN
-41 -4 -39 -18 -19 -73 -88 -161 -0 -212 -0 -0 -0 -0 -0 -0 -0 -0 -0 -0 -0 -0
-68 -42 -37 -7 -35 -128 -136 -123 -133 -0 -0 -0 -0 -0 -0 -0 -0 -0 -0 -0 -0 -0
-60 -32 -15 -6 -39 -114 -93 -218 -0 -0 -0 -0 -0 -0 -0 -0 -0 -0 -0 -0 -0 -0
-26 -53 -65 -114 -131 -115 -158 -66 -0 -0 -0 -0 -0 -0 -0 -0 -0 -0 -0 -0 -0 -0
-28 -113 -135 -150 -212 -197 -251 -0 -0 -0 -0 -0 -0 -0 -0 -0 -0 -0 -0 -0 -0 -0
-183 -240 -320 -102 -0 -0 -0 -0 -0 -0 -0 -0 -0 -0 -0 -0 -0 -0 -0 -0 -0 -0
-0 -0 -0 -0 -0 -0 -0 -0 -0 -0 -0 -0 -0 -0 -0 -0 -0 -0 -0 -0 -0 -0
-0 -0 -0 -0 -0 -0 -0 -0 -0 -0 -0 -0 -0 -0 -0 -0 -0 -0 -0 -0 -0 -0
-0 -0 -0 -0 -0 -0 -0 -0 -0 -0 -0 -0 -0 -0 -0 -0 -0 -0 -0 -0 -0 -3
-0 -0 -0 -0 -0 -0 -0 -0 -0 -0 -0 -0 -0 -0 -0 -0 -0 -0 -0 -0 -0 -0
-0 -0 -0 -0 -0 -0 -0 -0 -0 -0 -0 -0 -0 -0 -0 -0 -0 -0 -0 -0 -0 -0
-0 -0 -0 -0 -0 -0 -0 -0 -0 -0 -0 -6 -0 -0 -0 -0 -0 -0 -0 -0 -0 -0
-1 -0 -0 -0 -0 -0 -0 -0 -5 -1 -0 -0 -0 -0 -0 -0 -0 -0 -0 -0 -0 -0
-0 -0 -0 -0 -0 -3 -0 -0 -0 -0 -0 -0 -0 -0 -0 -0 -0 -0 -0 -0 -0 -0
Wind_Speed
10 7 5 6 6 6 6 6 7 5 7 8 10 10 13 14 12 17 15 14 16 19
13 12 10 10 8 9 9 11 8 7 7 7 11 12 13 14 18 10 14 18 20 22
10 10 12 11 11 12 11 12 11 11 10 12 13 13 13 11 11 11 14 17 20 22
11 12 13 10 12 13 12 12 11 13 13 11 12 12 10 9 10 14 17 19 21 23
10 14 14 15 14 13 13 12 11 11 11 12 11 10 8 11 14 16 17 19 21 23
13 13 13 13 12 12 11 13 13 12 12 11 12 11 12 13 14 16 19 21 23 23
9 11 11 12 12 12 13 13 12 13 13 12 10 11 12 13 15 19 22 23 23 25
11 12 12 12 13 13 14 13 12 12 12 12 12 12 13 16 19 22 24 25 26 26
12 12 13 13 13 13 13 13 12 12 12 12 13 13 15 18 21 23 25 25 25 27
10 12 13 12 12 13 13 12 12 12 12 13 15 16 18 19 21 23 25 27 30 31
8 9 10 11 12 12 12 12 12 13 15 17 17 16 18 20 21 24 27 29 31 34
8 9 10 12 12 12 13 14 15 15 15 17 18 19 20 22 25 28 31 32 34 37
9 11 11 12 13 13 13 13 14 15 19 20 19 21 24 26 28 31 33 34 36 38
10 11 12 11 12 12 15 16 17 19 20 21 21 23 26 29 30 33 36 38 40 40
Wind_Direction
193 208 227 230 282 251 261 275 308 284 273 278 314 317 307 309 302 298 301 306 314 319
201 206 249 250 260 270 274 303 306 302 298 293 319 320 319 308 304 311 307 312 318 319
231 246 266 270 275 294 304 309 312 319 319 320 325 326 327 323 315 315 320 317 317 319
239 258 270 290 302 307 308 306 310 316 317 318 321 326 325 316 323 315 317 318 316 316
255 289 310 313 314 316 315 321 321 322 322 325 325 326 328 318 318 318 321 321 319 318
300 313 319 321 324 323 324 327 328 328 325 327 329 328 326 327 323 323 323 323 322 321
315 325 330 330 329 329 329 330 333 331 331 332 331 331 330 329 327 326 325 325 324 321
330 333 334 333 332 334 335 335 337 339 341 340 337 336 333 329 327 328 327 325 324 322
327 330 333 335 336 341 341 343 345 344 344 343 341 338 333 331 329 328 327 327 326 325
329 331 332 341 344 343 343 347 348 351 348 342 337 334 332 332 332 331 330 329 328 327
341 345 346 346 345 348 349 350 349 345 341 337 335 334 335 335 334 332 331 331 330 329
347 347 344 343 345 346 345 344 341 342 343 340 346 348 344 339 337 334 332 332 331 330
344 342 343 343 342 342 345 344 343 346 346 345 345 346 344 341 338 334 334 333 331 331
342 340 340 344 345 342 343 345 343 340 341 342 344 344 343 342 339 336 333 332 332 332